Weather History for KMKJ - August, 2013

Change the Weather History Date:

Monday, August 26, 2013

  Actual Average (KGEV) Record (KGEV)
Temperature  
Mean Temperature 66 °F -  
Max Temperature 81 °F 79 °F 88 °F (1993)
Min Temperature 52 °F 55 °F 43 °F (1988)
Cooling Degree Days 2    
Growing Degree Days 16 (Base 50)    
Moisture  
Dew Point 59 °F    
Average Humidity 79    
Maximum Humidity 100    
Minimum Humidity 43    
Precipitation  
Precipitation 0.00 in - - ()
Sea Level Pressure  
Sea Level Pressure 30.34 in    
Wind  
Wind Speed 2 mph (West)    
Max Wind Speed 9 mph    
Max Gust Speed 9 mph    
Visibility 9 miles    
Events      
Averages and records for this station are not official NWS values.
T = Trace of Precipitation, MM = Missing Value Source: NWS Daily Summary

Daily Weather History Graph

Daily Weather History Graph

Search for Another Location

Airport or City:

Trip Planner

Search our weather history database for the weather conditions in past years. The results will help you decide how hot, cold, wet, or windy it might be!

Date:

Astronomy

Aug. 26, 2013 Rise Set
Actual Time 6:51 AM EDT 8:01 PM EDT
Civil Twilight 6:24 AM EDT 8:28 PM EDT
Nautical Twilight 5:52 AM EDT 9:00 PM EDT
Astronomical Twilight 5:19 AM EDT 9:33 PM EDT
Moon 11:22 PM EDT (8/26) 12:41 PM EDT (8/26)
Length of Visible Light 14h 03m
Length of Day
13h 10m
Waning Gibbous, 67% of the Moon is Illuminated
Aug 26
Waning Gibbous
Aug 28
Last Quarter
Sep 5
New
Sep 12
First Quarter
Sep 19
Full

Hourly Weather History & Observations

Time (EDT) Temp. Heat Index Dew Point Humidity Pressure Visibility Wind Dir Wind Speed Gust Speed Precip Events Conditions
12:15 AM 58.3 °F - 58.3 °F 100% 30.43 in 10.0 mi Calm Calm - N/A   Clear
12:35 AM 58.5 °F - 58.5 °F 100% 30.43 in 10.0 mi Calm Calm - N/A   Clear
12:55 AM 58.3 °F - 58.3 °F 100% 30.43 in 10.0 mi Calm Calm - N/A   Clear
1:15 AM 57.7 °F - 57.7 °F 100% 30.43 in 10.0 mi Calm Calm - N/A   Clear
1:35 AM 57.2 °F - 57.2 °F 100% 30.42 in 7.0 mi Calm Calm - N/A   Clear
1:55 AM 57.4 °F - 57.4 °F 100% 30.42 in 7.0 mi Calm Calm - N/A   Clear
2:15 AM 57.0 °F - 57.0 °F 100% 30.42 in 7.0 mi Calm Calm - N/A   Clear
2:35 AM 56.3 °F - 56.3 °F 100% 30.41 in 10.0 mi Calm Calm - N/A   Clear
2:55 AM 56.5 °F - 56.5 °F 100% 30.40 in 10.0 mi Calm Calm - N/A   Clear
3:15 AM 55.4 °F - 55.4 °F 100% 30.39 in 3.0 mi Calm Calm - N/A   Clear
3:35 AM 55.4 °F - 55.4 °F 100% 30.39 in 10.0 mi Calm Calm - N/A   Clear
3:55 AM 55.4 °F - 55.4 °F 100% 30.39 in 2.5 mi Calm Calm - N/A   Clear
4:15 AM 54.9 °F - 54.9 °F 100% 30.38 in 7.0 mi Calm Calm - N/A   Scattered Clouds
4:35 AM 54.5 °F - 54.5 °F 100% 30.38 in 7.0 mi Calm Calm - N/A   Clear
4:55 AM 54.5 °F - 54.5 °F 100% 30.38 in 7.0 mi Calm Calm - N/A   Clear
5:15 AM 54.7 °F - 54.7 °F 100% 30.37 in 7.0 mi Calm Calm - N/A   Clear
5:35 AM 54.1 °F - 54.1 °F 100% 30.37 in 10.0 mi Calm Calm - N/A   Clear
5:55 AM 54.3 °F - 54.3 °F 100% 30.37 in 7.0 mi Calm Calm - N/A   Clear
6:15 AM 53.8 °F - 53.8 °F 100% 30.37 in 10.0 mi Calm Calm - N/A   Clear
6:35 AM 54.0 °F - 54.0 °F 100% 30.38 in 7.0 mi Calm Calm - N/A   Clear
6:55 AM 52.9 °F - 52.9 °F 100% 30.38 in 0.8 mi Calm Calm - N/A   Mostly Cloudy
7:15 AM 53.1 °F - 53.1 °F 100% 30.39 in 5.0 mi Calm Calm - N/A   Scattered Clouds
7:35 AM 53.6 °F - 53.6 °F 100% 30.39 in 7.0 mi Calm Calm - N/A   Clear
7:55 AM 55.4 °F - 55.4 °F 100% 30.39 in 7.0 mi Calm Calm - N/A   Mostly Cloudy
8:15 AM 57.6 °F - 57.6 °F 100% 30.39 in 10.0 mi Calm Calm - N/A   Overcast
8:35 AM 59.7 °F - 59.5 °F 99% 30.39 in 10.0 mi West 5.8 mph - N/A   Mostly Cloudy
8:55 AM 63.1 °F - 61.0 °F 93% 30.39 in 10.0 mi West 6.9 mph - N/A   Scattered Clouds
9:15 AM 65.8 °F - 60.6 °F 83% 30.40 in 10.0 mi WSW 8.1 mph - N/A   Scattered Clouds
9:35 AM 66.6 °F - 59.2 °F 77% 30.40 in 10.0 mi WSW 8.1 mph - N/A   Clear
9:55 AM 68.5 °F - 59.2 °F 72% 30.40 in 10.0 mi SW 8.1 mph - N/A   Clear
10:15 AM 69.8 °F - 59.9 °F 71% 30.40 in 10.0 mi WSW 8.1 mph - N/A   Clear
10:35 AM 70.7 °F - 59.7 °F 68% 30.40 in 10.0 mi SW 8.1 mph - N/A   Clear
10:55 AM 72.3 °F - 60.1 °F 65% 30.40 in 10.0 mi SW 8.1 mph - N/A   Scattered Clouds
11:15 AM 72.9 °F - 61.2 °F 67% 30.39 in 10.0 mi SW 8.1 mph - N/A   Scattered Clouds
11:35 AM 74.1 °F - 62.2 °F 66% 30.38 in 10.0 mi WSW 8.1 mph - N/A   Scattered Clouds
11:55 AM 74.7 °F - 61.9 °F 64% 30.38 in 10.0 mi SW 5.8 mph 9.2 mph N/A   Clear
12:15 PM 76.5 °F - 62.2 °F 61% 30.37 in 10.0 mi WSW 6.9 mph - N/A   Scattered Clouds
12:35 PM 76.1 °F - 62.4 °F 62% 30.36 in 10.0 mi WSW 4.6 mph - N/A   Mostly Cloudy
12:55 PM 77.7 °F - 60.1 °F 54% 30.36 in 10.0 mi WNW 8.1 mph - N/A   Mostly Cloudy
1:15 PM 77.9 °F - 60.4 °F 55% 30.35 in 10.0 mi West 6.9 mph - N/A   Mostly Cloudy
1:35 PM 77.9 °F - 59.7 °F 53% 30.35 in 10.0 mi West 6.9 mph - N/A   Mostly Cloudy
1:55 PM 79.2 °F - 60.1 °F 52% 30.33 in 7.0 mi WNW 6.9 mph - N/A   Mostly Cloudy
2:15 PM 80.1 °F 80.8 °F 59.5 °F 49% 30.33 in 10.0 mi WNW 5.8 mph - N/A   Mostly Cloudy
2:35 PM 80.6 °F 81.0 °F 58.8 °F 47% 30.33 in 10.0 mi West 6.9 mph - N/A   Mostly Cloudy
2:55 PM 80.6 °F 81.0 °F 58.5 °F 47% 30.32 in 10.0 mi West 5.8 mph - N/A   Scattered Clouds
3:15 PM 78.8 °F - 59.2 °F 51% 30.31 in 10.0 mi West 6.9 mph - N/A   Mostly Cloudy
3:35 PM 81.1 °F 81.3 °F 57.7 °F 45% 30.30 in 10.0 mi Calm Calm - N/A   Scattered Clouds
3:55 PM 81.5 °F 81.4 °F 57.2 °F 43% 30.30 in 10.0 mi WSW 4.6 mph - N/A   Scattered Clouds
4:15 PM 79.2 °F - 59.2 °F 50% 30.29 in 10.0 mi Calm Calm - N/A   Scattered Clouds
4:35 PM 80.6 °F 80.9 °F 58.3 °F 46% 30.28 in 10.0 mi North 4.6 mph - N/A   Scattered Clouds
4:55 PM 81.3 °F 81.3 °F 57.2 °F 44% 30.27 in 10.0 mi WNW 9.2 mph - N/A   Scattered Clouds
5:15 PM 80.6 °F 80.7 °F 56.7 °F 44% 30.28 in 10.0 mi NNW 3.5 mph - N/A   Scattered Clouds
5:35 PM 78.6 °F - 57.7 °F 49% 30.27 in 10.0 mi NW 6.9 mph - N/A   Clear
5:55 PM 79.0 °F - 59.2 °F 51% 30.26 in 10.0 mi WNW 5.8 mph - N/A   Clear
6:15 PM 78.8 °F - 60.1 °F 53% 30.26 in 10.0 mi WNW 3.5 mph - N/A   Clear
6:35 PM 78.8 °F - 60.4 °F 53% 30.25 in 10.0 mi NW 4.6 mph - N/A   Clear
6:55 PM 77.9 °F - 61.2 °F 56% 30.25 in 10.0 mi NW 5.8 mph - N/A   Clear
7:15 PM 76.8 °F - 61.9 °F 60% 30.25 in 10.0 mi West 5.8 mph - N/A   Clear
7:35 PM 75.0 °F - 62.6 °F 65% 30.25 in 10.0 mi West 3.5 mph - N/A   Clear
7:55 PM 73.6 °F - 63.3 °F 70% 30.25 in 10.0 mi Calm Calm - N/A   Clear
8:15 PM 71.2 °F - 63.5 °F 76% 30.25 in 10.0 mi Calm Calm - N/A   Clear
8:35 PM 69.8 °F - 64.4 °F 83% 30.25 in 10.0 mi West 3.5 mph - N/A   Clear
8:55 PM 68.9 °F - 64.4 °F 86% 30.25 in 10.0 mi West 3.5 mph - N/A   Clear
9:15 PM 68.4 °F - 64.6 °F 88% 30.26 in 10.0 mi Calm Calm - N/A   Clear
9:35 PM 68.0 °F - 65.1 °F 90% 30.26 in 10.0 mi Calm Calm - N/A   Scattered Clouds
9:55 PM 67.1 °F - 64.6 °F 92% 30.26 in 10.0 mi West 3.5 mph - N/A   Clear
10:15 PM 66.9 °F - 65.3 °F 95% 30.26 in 10.0 mi Calm Calm - N/A   Clear
10:35 PM 66.6 °F - 66.4 °F 99% 30.27 in 10.0 mi Calm Calm - N/A   Clear
10:55 PM 66.4 °F - 66.4 °F 100% 30.28 in 7.0 mi WNW 3.5 mph - N/A   Clear
11:15 PM 66.4 °F - 66.4 °F 100% 30.28 in 7.0 mi Calm Calm - N/A   Clear
11:35 PM 66.0 °F - 66.0 °F 100% 30.27 in 7.0 mi Calm Calm - N/A   Clear
11:55 PM 65.5 °F - 65.5 °F 100% 30.26 in 5.0 mi West 3.5 mph - N/A   Clear